{"data":{"norad_id":59221,"intl_designator":"2024-046W","name":"STARLINK-31516","alt_names":[],"object_type":"PAYLOAD","status":"ACTIVE","operator":null,"country":"US","launch_date":"2024-03-11","launch_site_code":"AFWTR","launch_vehicle":null,"mission":null,"orbit_class":"UNKNOWN","rcs_meters":null,"size_class":null,"mass_kg":null,"dimensions":null,"purposes":["comms"],"wikipedia_slug":null,"has_3d_model":false,"image_url":null,"decayed_at":null,"tle_current":{"epoch":"2026-09-20T21:42:38.803392Z","epoch_age_seconds":123891,"freshness":"FRESH","line1":"1 59221U 24046W   26263.90461578 -.00000173  00000+0  60299-5 0  9996","line2":"2 59221  53.1614 323.9187 0001339  75.7254 284.3897 15.34392132142999","mean_motion":15.34392132,"eccentricity":0.0001339,"inclination_deg":53.1614,"raan_deg":323.9187,"arg_perigee_deg":75.7254,"mean_anomaly_deg":284.3897,"bstar":6.0299e-6,"rev_number":14299,"period_min":93.848239310445,"perigee_km":461.81063402166,"apogee_km":463.64261730062,"semimajor_km":6840.8636256611,"source":"CELESTRAK","updated_at":"2026-09-21T09:00:34.072940Z"}}}